Aeroporto :
LOGIN :

Iscrizione | Disclaimer

   EN    FR    IT 

 










Sommario :    VFR   VFR Marginale   IFR   IFR Intensivo   IFR Molto Intensivo
Visibilità : 
Base nubi : 
>= 8 km
>= 3000ft
5 / 8 km
1000 / 3000 ft
1500m / 5 km
500 / 1000 ft
800 / 1500m
200 / 500 ft
< 800m
< 200 ft
Simboli :   Temporali  Nebbia  Neve Forte  Precipitazioni Forti  Vento > 20 kt
SIGMETs :   Varie  Temporali  Ghiacco  Turbolenza  Onda orograficha  Ceneri Vulcaniche






- Altitudine del aeroporto : 1822 ft


ETSL - Lechfeld AB

ULTIMO METAR :
  • 220420Z 07003KT 9999 SCT100 BKN140 15/14 Q1012 BLU BLU

METARs OBSOLETI :
  • 220320Z AUTO 00000KT 9999 // ////// 15/14 Q1012 ///
  • 220220Z AUTO 17003KT 9999 // ////// 15/14 Q1012 ///

TAF TAF ETSL
Valido dal 22 a 05 ore il 22 a 14 ore UTC


220410Z 2205/2214 32003KT 9999 NSW BKN120
PROB30 2213/2214 35015G30KT 2000 +TSRA BKN040CB BY ETGL



MetMap, La meteo Aeronautica in un colpo d'occhio ! - Copyright ORBIFLY Dicembre 2007 - Disclaimer

ORBIFLY MET'MAP TEAM :

Programmazione e sviluppo : Alexandra Zaïnal
Concezione : Baudouin d'Aumeries
Aiuto per la programmazione : Marc-Olivier Méhu
Supporto tecnico e logistico : Manuel Goepfert
Aiuto per la traduzione : Arnaldo La Scala

Contatto : metmap@orbifly.com




FONTI E CREDITI :

   NOAA